Weather History for Athens, OH

Change the Weather History Date:

Saturday, January 14, 2012

  Actual Average (KPKB) Record (KPKB)
Temperature  
Mean Temperature -5 °C -1 °C  
Max Temperature -3 °C 4 °C 23 °C (1995)
Min Temperature -7 °C -5 °C -20 °C (1929)
Degree Days  
Heating Degree Days 42 34  
Month to date heating degree days 469  
Since 1 July heating degree days 2379  
Cooling Degree Days 0 0  
Month to date cooling degree days 0  
Year to date cooling degree days 0  
Moisture  
Dew Point -9 °C    
Average Humidity 72    
Maximum Humidity 81    
Minimum Humidity 58    
Precipitation  
Precipitation 0.00 mm 2.29 mm 1.65 mm (2007)
Month to date precipitation 1.31  
Year to date precipitation 1.31  
Sea Level Pressure  
Sea Level Pressure 1020 hPa    
Wind  
Wind Speed 11 km/h (WSW)    
Max Wind Speed 21 km/h    
Max Gust Speed 29 km/h    
Visibility 15 kilometers    
Events Snow    
T = Trace of Precipitation, MM = Missing Value Source: NWS Daily Summary

Daily Weather History Graph

Daily Weather History Graph

Search for Another Location

Airport:

Trip Planner

Search our weather history database for the weather conditions in past years. The results will help you decide how hot, cold, wet, or windy it might be!

Date:

Astronomy

Jan. 14, 2012 Rise Set
Actual Time 7:47 AM EST 5:28 PM EST
Civil Twilight 7:17 AM EST 5:58 PM EST
Nautical Twilight 6:44 AM EST 6:31 PM EST
Astronomical Twilight 6:12 AM EST 7:03 PM EST
Moon 11:45 PM EST (1/14) 10:34 AM EST (1/14)
Length of Visible Light 10h 40m
Length of Day
9h 41m
Waning Gibbous, 69% of the Moon is Illuminated
Jan 14
Waning Gibbous
Jan 16
Last Quarter
Jan 23
New
Jan 30
First Quarter
Feb 7
Full

Hourly Weather History & Observations

Time (EST) Temp. Windchill Dew Point Humidity Pressure Visibility Wind Dir Wind Speed Gust Speed Precip Events Conditions
12:15 AM -6.1 °C -11.4 °C -9.5 °C 77% 1018.2 hPa 16.1 km WSW 13.0 km/h / 3.6 m/s - N/A   Overcast
12:35 AM -6.1 °C -11.9 °C -9.5 °C 77% 1018.2 hPa 16.1 km WSW 14.8 km/h / 4.1 m/s - N/A Snow Light Snow
12:55 AM -6.1 °C -10.9 °C -9.5 °C 77% 1018.5 hPa 16.1 km SW 11.1 km/h / 3.1 m/s - N/A Snow Light Snow
1:15 AM -6.2 °C -12.0 °C -9.4 °C 78% 1018.5 hPa 16.1 km WSW 14.8 km/h / 4.1 m/s - N/A Snow Light Snow
1:35 AM -6.2 °C -12.0 °C -9.3 °C 79% 1018.5 hPa 16.1 km WSW 14.8 km/h / 4.1 m/s - N/A Snow Light Snow
1:55 AM -6.2 °C -11.0 °C -9.3 °C 79% 1018.5 hPa 16.1 km WSW 11.1 km/h / 3.1 m/s - N/A Snow Light Snow
2:15 AM -6.3 °C -11.2 °C -9.3 °C 80% 1018.8 hPa 16.1 km WSW 11.1 km/h / 3.1 m/s - N/A Snow Light Snow
2:35 AM -6.3 °C -11.2 °C -9.1 °C 81% 1019.2 hPa 16.1 km WSW 11.1 km/h / 3.1 m/s - N/A Snow Light Snow
2:55 AM -6.3 °C -11.2 °C -9.0 °C 81% 1019.2 hPa 16.1 km WSW 11.1 km/h / 3.1 m/s - N/A Snow Light Snow
3:15 AM -6.3 °C -11.2 °C -9.0 °C 81% 1018.8 hPa 16.1 km WSW 11.1 km/h / 3.1 m/s - N/A Snow Light Snow
3:35 AM -6.3 °C -11.7 °C -9.1 °C 81% 1019.2 hPa 16.1 km WSW 13.0 km/h / 3.6 m/s - N/A   Overcast
3:55 AM -6.3 °C -11.7 °C -9.5 °C 78% 1019.5 hPa 16.1 km WSW 13.0 km/h / 3.6 m/s - N/A   Mostly Cloudy
4:15 AM -6.3 °C -11.2 °C -9.6 °C 78% 1019.5 hPa 16.1 km WSW 11.1 km/h / 3.1 m/s - N/A   Overcast
4:35 AM -6.5 °C -10.1 °C -9.5 °C 80% 1019.5 hPa 16.1 km WSW 7.4 km/h / 2.1 m/s - N/A   Overcast
4:55 AM -6.5 °C -11.9 °C -9.3 °C 81% 1019.2 hPa 16.1 km WSW 13.0 km/h / 3.6 m/s - N/A   Overcast
5:15 AM -6.5 °C -10.8 °C -9.7 °C 78% 1019.2 hPa 16.1 km WSW 9.3 km/h / 2.6 m/s - N/A Snow Light Snow
5:35 AM -6.6 °C -10.9 °C -10.0 °C 77% 1019.2 hPa 16.1 km SW 9.3 km/h / 2.6 m/s - N/A   Mostly Cloudy
5:55 AM -6.6 °C -11.5 °C -9.8 °C 78% 1019.5 hPa 16.1 km WSW 11.1 km/h / 3.1 m/s - N/A   Overcast
6:15 AM -6.7 °C -11.0 °C -10.0 °C 78% 1019.9 hPa 16.1 km SW 9.3 km/h / 2.6 m/s - N/A   Overcast
6:35 AM -6.6 °C -10.2 °C -9.8 °C 78% 1019.9 hPa 16.1 km SW 7.4 km/h / 2.1 m/s - N/A Snow Light Snow
6:55 AM -6.6 °C -10.2 °C -9.7 °C 79% 1019.9 hPa 16.1 km SW 7.4 km/h / 2.1 m/s - N/A Snow Light Snow
7:15 AM -6.5 °C - -9.5 °C 80% 1020.2 hPa 16.1 km Calm Calm - N/A Snow Light Snow
7:35 AM -6.5 °C -9.2 °C -9.5 °C 80% 1020.2 hPa 16.1 km SW 5.6 km/h / 1.5 m/s - N/A Snow Light Snow
7:55 AM -6.5 °C -10.1 °C -9.5 °C 80% 1020.5 hPa 16.1 km SW 7.4 km/h / 2.1 m/s - N/A Snow Light Snow
8:15 AM -6.5 °C -10.8 °C -9.4 °C 80% 1020.9 hPa 16.1 km SW 9.3 km/h / 2.6 m/s - N/A Snow Light Snow
8:55 AM -6.3 °C -10.6 °C -9.1 °C 81% 1020.9 hPa 6.4 km WSW 9.3 km/h / 2.6 m/s - N/A Snow Light Snow
9:15 AM -6.1 °C -10.3 °C -9.0 °C 80% 1021.2 hPa 4.8 km WSW 9.3 km/h / 2.6 m/s - N/A Snow Light Snow
9:35 AM -6.0 °C -10.2 °C -9.0 °C 80% 1020.9 hPa 4.0 km WSW 9.3 km/h / 2.6 m/s - N/A Snow Light Snow
9:55 AM -5.8 °C -9.3 °C -9.0 °C 78% 1021.2 hPa 16.1 km WSW 7.4 km/h / 2.1 m/s - N/A Snow Light Snow
10:15 AM -5.6 °C -9.7 °C -9.6 °C 74% 1021.2 hPa 16.1 km SW 9.3 km/h / 2.6 m/s - N/A Snow Light Snow
10:35 AM -5.2 °C -10.3 °C -9.5 °C 72% 1021.2 hPa 16.1 km West 13.0 km/h / 3.6 m/s - N/A Snow Light Snow
10:55 AM -5.2 °C -10.8 °C -9.7 °C 71% 1020.9 hPa 16.1 km West 14.8 km/h / 4.1 m/s - N/A Snow Light Snow
11:15 AM -5.2 °C -10.8 °C -9.6 °C 72% 1020.9 hPa 16.1 km WSW 14.8 km/h / 4.1 m/s - N/A Snow Light Snow
11:35 AM -4.8 °C -11.0 °C -10.0 °C 67% 1020.5 hPa 16.1 km WSW 18.5 km/h / 5.1 m/s - N/A   Scattered Clouds
11:55 AM -4.9 °C -11.5 °C -10.1 °C 67% 1020.5 hPa 16.1 km West 20.4 km/h / 5.7 m/s 27.8 km/h / 7.7 m/s N/A   Scattered Clouds
12:15 PM -4.3 °C -9.7 °C -9.9 °C 65% 1020.2 hPa 16.1 km WSW 14.8 km/h / 4.1 m/s - N/A   Mostly Cloudy
12:35 PM -4.3 °C -9.2 °C -10.1 °C 64% 1019.9 hPa 16.1 km WSW 13.0 km/h / 3.6 m/s - N/A   Mostly Cloudy
12:55 PM -3.3 °C -8.4 °C -9.6 °C 62% 1019.5 hPa 16.1 km West 14.8 km/h / 4.1 m/s 29.6 km/h / 8.2 m/s N/A   Overcast
1:15 PM -4.1 °C -9.8 °C -9.8 °C 65% 1019.5 hPa 16.1 km West 16.7 km/h / 4.6 m/s - N/A   Scattered Clouds
1:35 PM -3.0 °C -7.2 °C -9.3 °C 62% 1019.2 hPa 16.1 km West 11.1 km/h / 3.1 m/s - N/A   Clear
1:55 PM -2.7 °C -6.3 °C -9.2 °C 61% 1018.8 hPa 16.1 km WSW 9.3 km/h / 2.6 m/s - N/A   Scattered Clouds
2:15 PM -3.0 °C -6.7 °C -9.5 °C 61% 1018.8 hPa 16.1 km West 9.3 km/h / 2.6 m/s - N/A   Clear
2:35 PM -3.0 °C -6.0 °C -9.7 °C 60% 1018.8 hPa 16.1 km West 7.4 km/h / 2.1 m/s - N/A   Scattered Clouds
2:55 PM -2.6 °C -6.7 °C -9.5 °C 60% 1018.8 hPa 16.1 km West 11.1 km/h / 3.1 m/s - N/A   Overcast
3:15 PM -2.7 °C -5.7 °C -9.4 °C 60% 1018.8 hPa 16.1 km West 7.4 km/h / 2.1 m/s - N/A   Mostly Cloudy
3:35 PM -2.5 °C -6.6 °C -9.8 °C 58% 1018.8 hPa 16.1 km West 11.1 km/h / 3.1 m/s - N/A   Scattered Clouds
3:55 PM -2.7 °C - -9.7 °C 59% 1018.8 hPa 16.1 km Calm Calm - N/A   Clear
4:15 PM -2.8 °C -5.0 °C -9.9 °C 59% 1019.2 hPa 16.1 km NNW 5.6 km/h / 1.5 m/s - N/A   Clear
4:35 PM -2.8 °C - -9.8 °C 59% 1019.2 hPa 16.1 km Calm Calm - N/A   Clear
4:55 PM -3.0 °C - -9.7 °C 60% 1019.2 hPa 16.1 km Calm Calm - N/A   Clear
5:15 PM -3.2 °C - -9.6 °C 62% 1019.2 hPa 16.1 km Calm Calm - N/A   Clear
5:35 PM -3.4 °C - -9.0 °C 66% 1019.5 hPa 16.1 km Calm Calm - N/A   Clear
5:55 PM -3.6 °C - -9.1 °C 66% 1019.5 hPa 16.1 km Calm Calm - N/A   Clear
6:15 PM -3.8 °C - -9.0 °C 68% 1019.9 hPa 16.1 km Calm Calm - N/A   Clear
6:35 PM -4.1 °C - -9.0 °C 69% 1020.2 hPa 16.1 km Calm Calm - N/A   Clear
6:55 PM -4.5 °C - -9.1 °C 71% 1020.2 hPa 16.1 km Calm Calm - N/A   Clear
7:15 PM -4.5 °C -7.0 °C -9.5 °C 69% 1020.2 hPa 16.1 km North 5.6 km/h / 1.5 m/s - N/A   Scattered Clouds
7:35 PM -4.6 °C -7.1 °C -9.2 °C 71% 1020.5 hPa 16.1 km North 5.6 km/h / 1.5 m/s - N/A   Scattered Clouds
7:55 PM -4.8 °C -7.3 °C -9.4 °C 71% 1020.5 hPa 16.1 km North 5.6 km/h / 1.5 m/s - N/A   Scattered Clouds
8:15 PM -5.1 °C -7.6 °C -9.5 °C 72% 1020.9 hPa 16.1 km NNE 5.6 km/h / 1.5 m/s - N/A   Clear
8:35 PM -5.2 °C -7.8 °C -9.6 °C 72% 1021.2 hPa 16.1 km North 5.6 km/h / 1.5 m/s - N/A   Clear
8:55 PM -5.4 °C -9.5 °C -9.8 °C 72% 1021.6 hPa 16.1 km North 9.3 km/h / 2.6 m/s - N/A   Clear
9:15 PM -5.5 °C -8.1 °C -9.7 °C 73% 1021.6 hPa 16.1 km North 5.6 km/h / 1.5 m/s - N/A   Clear
9:55 PM -6.0 °C - -9.8 °C 75% 1021.9 hPa 16.1 km Calm Calm - N/A   Clear
10:15 PM -6.0 °C - -9.7 °C 75% 1021.9 hPa 16.1 km Calm Calm - N/A   Clear
10:35 PM -6.0 °C - -9.5 °C 77% 1022.2 hPa 16.1 km Calm Calm - N/A   Clear
10:55 PM -6.0 °C - -9.2 °C 78% 1022.2 hPa 16.1 km Calm Calm - N/A   Clear
11:15 PM -6.0 °C -8.7 °C -9.3 °C 78% 1022.2 hPa 16.1 km NNE 5.6 km/h / 1.5 m/s - N/A   Clear
11:35 PM -6.1 °C -10.3 °C -9.1 °C 80% 1022.2 hPa 16.1 km NE 9.3 km/h / 2.6 m/s - N/A   Clear
11:55 PM -6.3 °C -9.0 °C -9.2 °C 80% 1022.2 hPa 16.1 km NE 5.6 km/h / 1.5 m/s - N/A   Scattered Clouds